Location: Unspecified
(42.7170°S, 0.0000°E)
Time: 22:38:42
(UTC+00:00)

N. Korean satellite - Pass Details

Date: 26 May 2019
Orbit: 455 x 510 km, 97.2° (Epoch: 17 June)

Event Time Altitude Azimuth Distance (km) Brightness Sun altitude
Exits shadow 17:30:20 - 150° (SSE) 2,008 9.2 -9.5°
Reaches altitude 10° 17:31:04 10° 145° (SE) 1,737 8.9 -9.6°
Maximum altitude 17:34:21 29° 84° (E) 971 7.6 -10.2°
Drops below altitude 10° 17:37:39 10° 23° (NNE) 1,732 9.3 -10.8°
Sets 17:39:56 0° 11° (N) 2,613 10.4 -11.2°
